This is the latest recevied weather packets stored in our database for station/object W3TMB. If no packets are shown the sender has not sent any weather packets the latest 1 day(s).
| Time | Temp. | Humidity | Pressure | Rain* | Wind** | Luminosity | Snow |
|---|---|---|---|---|---|---|---|
| 1778013673 | 25° C | 45% | 1003.4 hPa | 0 mm | 2.24 m/s, 253° | 150 W/m² | - |
| 1778013370 | 25.56° C | 45% | 1003.8 hPa | 0 mm | 0.89 m/s, 346° | 217 W/m² | - |
| 1778013067 | 25.56° C | 45% | 1003.7 hPa | 0 mm | 1.34 m/s, 273° | 330 W/m² | - |
| 1778012763 | 25° C | 46% | 1003.7 hPa | 0 mm | 1.34 m/s, 253° | 199 W/m² | - |
| 1778012459 | 25° C | 46% | 1003.6 hPa | 0 mm | 0.45 m/s, 277° | 212 W/m² | - |
| 1778012156 | 24.44° C | 46% | 1003.9 hPa | 0 mm | 3.13 m/s, 322° | 246 W/m² | - |
| 1778011854 | 25° C | 46% | 1003.8 hPa | 0 mm | 2.24 m/s, 151° | 75 W/m² | - |
| 1778011551 | 25.56° C | 43% | 1003.7 hPa | 0 mm | 1.34 m/s, 342° | 100 W/m² | - |
| 1778011248 | 25.56° C | 42% | 1003.2 hPa | 0 mm | 1.79 m/s, 248° | 176 W/m² | - |
| 1778010944 | 25.56° C | 42% | 1003.4 hPa | 0 mm | 0.89 m/s, 292° | 189 W/m² | - |
| 1778010642 | 25.56° C | 43% | 1003.3 hPa | 0 mm | 1.34 m/s, 273° | 218 W/m² | - |
| 1778010339 | 25.56° C | 43% | 1003.6 hPa | 0 mm | 2.24 m/s, 274° | 147 W/m² | - |
| 1778010034 | 25.56° C | 42% | 1003.5 hPa | 0 mm | 1.34 m/s, 275° | 112 W/m² | - |
| 1778009731 | 26.11° C | 40% | 1003.4 hPa | 0 mm | 1.34 m/s, 316° | 110 W/m² | - |
| 1778009429 | 26.11° C | 41% | 1003.5 hPa | 0 mm | 0.45 m/s, 334° | 107 W/m² | - |
| 1778009127 | 26.11° C | 40% | 1003.5 hPa | 0 mm | 0.89 m/s, 260° | 136 W/m² | - |
| 1778008824 | 26.11° C | 40% | 1003.5 hPa | 0 mm | 1.79 m/s, 243° | 113 W/m² | - |
| 1778008522 | 26.11° C | 40% | 1003.5 hPa | 0 mm | 0.89 m/s, 3° | 116 W/m² | - |
| 1778008220 | 26.67° C | 39% | 1003.4 hPa | 0 mm | 1.34 m/s, 288° | 133 W/m² | - |
| 1778007914 | 27.22° C | 40% | 1003.4 hPa | 0 mm | 1.34 m/s, 296° | 217 W/m² | - |
| 1778007611 | 27.22° C | 38% | 1003.4 hPa | 0 mm | 2.24 m/s, 256° | 217 W/m² | - |
| 1778007308 | 27.22° C | 39% | 1003.2 hPa | 0 mm | 0.89 m/s, 325° | 218 W/m² | - |
| 1778007004 | 28.33° C | 38% | 1003.3 hPa | 0 mm | 1.34 m/s, 283° | 233 W/m² | - |
| 1778006701 | 28.33° C | 37% | 1002.9 hPa | 0 mm | 3.13 m/s, 259° | 298 W/m² | - |
| 1778006397 | 28.89° C | 37% | 1003.3 hPa | 0 mm | 2.68 m/s, 287° | 497 W/m² | - |
* Rain latest hour (hover to see other rain measurements)
** Current wind speed in m/s (hover to see current wind gust speed)